| time (UTC) | temp F | wind direction | speed MPH | gust MPH | rain 1hr in | rain 24hr in | rain mn in | humidity % | barometer mb |
| 20260831111515 | 64 | 9 | 0.0 | 0.0 | 0.00 | 0.10 | 0.00 | 93 | 1018.8 |
| 20260831110020 | 64 | 355 | 0.0 | 0.0 | 0.00 | 0.10 | 0.00 | 93 | 1018.5 |
| 20260831104509 | 64 | 355 | 0.0 | 0.0 | 0.00 | 0.10 | 0.00 | 93 | 1018.4 |
| 20260831103009 | 64 | 355 | 0.0 | 0.0 | 0.00 | 0.10 | 0.00 | 93 | 1018.3 |
| 20260831101505 | 65 | 355 | 0.0 | 0.0 | 0.00 | 0.10 | 0.00 | 93 | 1018.1 |
| 20260831100004 | 65 | 355 | 0.0 | 0.0 | 0.00 | 0.10 | 0.00 | 93 | 1018.1 |
| 20260831094504 | 65 | 355 | 0.0 | 0.0 | 0.00 | 0.10 | 0.00 | 93 | 1018.1 |
| 20260831093000 | 66 | 29 | 0.0 | 0.0 | 0.00 | 0.10 | 0.00 | 93 | 1018.1 |
| 20260831091615 | 66 | 29 | 0.0 | 0.0 | 0.00 | 0.10 | 0.00 | 93 | 1018.2 |
| 20260831084601 | 66 | 29 | 0.0 | 0.0 | 0.00 | 0.10 | 0.00 | 93 | 1017.9 |
| 20260831083059 | 66 | 29 | 0.0 | 0.0 | 0.00 | 0.10 | 0.00 | 93 | 1017.9 |
| 20260831081600 | 66 | 29 | 0.0 | 0.0 | 0.00 | 0.10 | 0.00 | 93 | 1018.0 |
| 20260831080057 | 66 | 29 | 0.0 | 0.0 | 0.00 | 0.10 | 0.00 | 93 | 1017.8 |
| 20260831074555 | 66 | 29 | 0.0 | 0.0 | 0.00 | 0.10 | 0.00 | 93 | 1017.7 |
| 20260831073058 | 66 | 29 | 0.0 | 0.0 | 0.00 | 0.10 | 0.00 | 93 | 1017.8 |
| 20260831071610 | 66 | 29 | 0.0 | 0.0 | 0.00 | 0.10 | 0.00 | 93 | 1017.8 |
| 20260831070054 | 66 | 29 | 0.0 | 1.0 | 0.00 | 0.10 | 0.00 | 92 | 1018.0 |
| 20260831064552 | 66 | 29 | 0.0 | 0.0 | 0.00 | 0.10 | 0.00 | 92 | 1017.9 |
| 20260831063050 | 67 | 29 | 0.0 | 0.0 | 0.00 | 0.10 | 0.00 | 92 | 1017.9 |
| 20260831061549 | 67 | 29 | 0.0 | 0.0 | 0.00 | 0.10 | 0.00 | 92 | 1017.8 |
| 20260831060054 | 67 | 29 | 0.0 | 0.0 | 0.00 | 0.10 | 0.00 | 92 | 1018.0 |
| 20260831054546 | 67 | 29 | 0.0 | 0.0 | 0.00 | 0.10 | 0.00 | 92 | 1017.6 |
| 20260831053051 | 68 | 29 | 0.0 | 0.0 | 0.00 | 0.10 | 0.00 | 92 | 1017.7 |
| 20260831051544 | 68 | 29 | 0.0 | 0.0 | 0.00 | 0.10 | 0.00 | 92 | 1017.6 |
| 20260831050044 | 68 | 29 | 0.0 | 0.0 | 0.00 | 0.10 | 0.00 | 92 | 1017.6 |
| 20260831044548 | 68 | 29 | 0.0 | 0.0 | 0.00 | 0.10 | 0.00 | 92 | 1017.7 |
| 20260831043044 | 68 | 29 | 0.0 | 0.0 | 0.00 | 0.10 | 0.00 | 92 | 1017.4 |
| 20260831041542 | 69 | 29 | 0.0 | 0.0 | 0.00 | 0.10 | 0.00 | 92 | 1017.5 |
| 20260831040037 | 69 | 29 | 0.0 | 0.0 | 0.00 | 0.10 | 0.00 | 92 | 1017.5 |
| 20260831034535 | 69 | 29 | 0.0 | 0.0 | 0.01 | 0.10 | 0.10 | 92 | 1017.5 |
| 20260831033045 | 69 | 29 | 0.0 | 0.0 | 0.01 | 0.10 | 0.10 | 92 | 1017.6 |
| 20260831031536 | 69 | 29 | 0.0 | 0.0 | 0.01 | 0.10 | 0.10 | 91 | 1017.8 |
| 20260831030034 | 70 | 29 | 0.0 | 0.0 | 0.01 | 0.10 | 0.10 | 92 | 1018.1 |
| 20260831024534 | 71 | 28 | 0.0 | 0.0 | 0.01 | 0.09 | 0.09 | 92 | 1018.2 |
| 20260831023037 | 71 | 29 | 0.0 | 0.0 | 0.01 | 0.09 | 0.09 | 92 | 1018.1 |
| 20260831021537 | 71 | 29 | 0.0 | 0.0 | 0.02 | 0.09 | 0.09 | 91 | 1018.1 |
| 20260831020056 | 71 | 29 | 0.0 | 0.0 | 0.03 | 0.09 | 0.09 | 91 | 1018.0 |
| 20260831014531 | 71 | 29 | 0.0 | 0.0 | 0.03 | 0.08 | 0.08 | 91 | 1017.9 |
| 20260831013031 | 72 | 29 | 0.0 | 0.0 | 0.04 | 0.08 | 0.08 | 91 | 1017.9 |
| 20260831011529 | 72 | 29 | 0.0 | 0.0 | 0.04 | 0.07 | 0.07 | 91 | 1017.8 |
| 20260831010029 | 72 | 29 | 0.0 | 0.0 | 0.05 | 0.06 | 0.06 | 90 | 1017.7 |
| 20260831004530 | 72 | 29 | 0.0 | 0.0 | 0.04 | 0.05 | 0.05 | 90 | 1017.7 |
| 20260831003029 | 72 | 27 | 0.0 | 0.0 | 0.04 | 0.04 | 0.04 | 89 | 1017.6 |
| 20260831001529 | 73 | 27 | 0.0 | 0.0 | 0.03 | 0.03 | 0.03 | 88 | 1017.4 |
| 20260831000026 | 73 | 27 | 0.0 | 0.0 | 0.01 | 0.01 | 0.01 | 87 | 1017.2 |
| 20260830234538 | 74 | 27 | 0.0 | 0.0 | 0.00 | 0.00 | 0.00 | 86 | 1017.0 |
| 20260830233027 | 74 | 27 | 0.0 | 0.0 | 0.00 | 0.00 | 0.00 | 85 | 1016.9 |
| 20260830231528 | 74 | 27 | 0.0 | 0.0 | 0.00 | 0.00 | 0.00 | 84 | 1016.8 |
| 20260830230023 | 74 | 27 | 0.0 | 1.0 | 0.00 | 0.00 | 0.00 | 83 | 1016.7 |
| 20260830224523 | 75 | 181 | 0.0 | 0.0 | 0.00 | 0.00 | 0.00 | 82 | 1016.7 |
| 20260830223023 | 75 | 181 | 0.0 | 0.0 | 0.00 | 0.00 | 0.00 | 82 | 1016.7 |
| 20260830221521 | 75 | 182 | 0.0 | 0.0 | 0.00 | 0.00 | 0.00 | 81 | 1016.9 |
| 20260830220020 | 76 | 182 | 0.0 | 0.0 | 0.00 | 0.00 | 0.00 | 80 | 1017.1 |
| 20260830214520 | 76 | 194 | 0.0 | 0.0 | 0.00 | 0.00 | 0.00 | 79 | 1016.9 |
| 20260830213034 | 77 | 161 | 0.0 | 0.0 | 0.00 | 0.00 | 0.00 | 79 | 1016.8 |
| 20260830211524 | 77 | 155 | 0.0 | 0.0 | 0.00 | 0.00 | 0.00 | 79 | 1016.9 |
| 20260830210042 | 77 | 219 | 0.0 | 0.0 | 0.00 | 0.00 | 0.00 | 79 | 1016.8 |
| 20260830204515 | 77 | 300 | 0.0 | 0.0 | 0.00 | 0.00 | 0.00 | 80 | 1017.1 |
| 20260830203020 | 76 | 152 | 0.0 | 0.0 | 0.00 | 0.00 | 0.00 | 80 | 1017.2 |
| 20260830201513 | 76 | 219 | 0.0 | 3.0 | 0.00 | 0.00 | 0.00 | 82 | 1017.3 |
| 20260830200012 | 75 | 254 | 0.0 | 0.0 | 0.00 | 0.00 | 0.00 | 82 | 1017.4 |
| 20260830194511 | 74 | 221 | 0.0 | 0.0 | 0.00 | 0.00 | 0.00 | 81 | 1017.6 |
| 20260830193016 | 74 | 196 | 0.0 | 0.0 | 0.00 | 0.00 | 0.00 | 81 | 1017.6 |
| 20260830191515 | 74 | 202 | 0.0 | 0.0 | 0.00 | 0.00 | 0.00 | 80 | 1018.0 |
| 20260830190004 | 74 | 202 | 0.0 | 0.0 | 0.00 | 0.00 | 0.00 | 79 | 1018.2 |
| 20260830184503 | 75 | 178 | 0.0 | 0.0 | 0.00 | 0.00 | 0.00 | 77 | 1018.5 |
| 20260830183001 | 75 | 173 | 0.0 | 0.0 | 0.00 | 0.00 | 0.00 | 76 | 1018.5 |
| 20260830181603 | 75 | 175 | 0.0 | 0.0 | 0.00 | 0.00 | 0.00 | 74 | 1018.6 |
| 20260830180058 | 76 | 286 | 0.0 | 0.0 | 0.00 | 0.00 | 0.00 | 72 | 1018.8 |
| 20260830174600 | 76 | 201 | 0.0 | 0.0 | 0.00 | 0.00 | 0.00 | 69 | 1018.9 |
| 20260830173055 | 77 | 192 | 0.0 | 0.0 | 0.00 | 0.00 | 0.00 | 68 | 1018.9 |
| 20260830171554 | 78 | 175 | 0.0 | 0.0 | 0.00 | 0.00 | 0.00 | 66 | 1019.3 |
| 20260830170053 | 78 | 170 | 0.0 | 0.0 | 0.00 | 0.00 | 0.00 | 65 | 1019.3 |
| 20260830164551 | 78 | 154 | 0.0 | 0.0 | 0.00 | 0.00 | 0.00 | 66 | 1019.3 |
| 20260830163051 | 77 | 127 | 0.0 | 0.0 | 0.00 | 0.00 | 0.00 | 65 | 1019.3 |
| 20260830161600 | 76 | 235 | 0.0 | 0.0 | 0.00 | 0.00 | 0.00 | 66 | 1019.6 |
| 20260830160043 | 75 | 238 | 0.0 | 0.0 | 0.00 | 0.00 | 0.00 | 65 | 1019.9 |
| 20260830154542 | 76 | 210 | 0.0 | 0.0 | 0.00 | 0.00 | 0.00 | 63 | 1020.0 |
| 20260830153052 | 76 | 165 | 0.0 | 1.0 | 0.00 | 0.00 | 0.00 | 64 | 1020.1 |
| 20260830151538 | 75 | 207 | 0.0 | 1.0 | 0.00 | 0.00 | 0.00 | 63 | 1020.1 |
| 20260830150033 | 74 | 222 | 0.0 | 4.0 | 0.00 | 0.00 | 0.00 | 63 | 1020.6 |
| 20260830144529 | 73 | 192 | 0.0 | 0.0 | 0.00 | 0.00 | 0.00 | 66 | 1020.8 |
| 20260830143031 | 72 | 193 | 0.0 | 0.0 | 0.00 | 0.00 | 0.00 | 68 | 1020.7 |
| 20260830141523 | 70 | 182 | 0.0 | 0.0 | 0.00 | 0.00 | 0.00 | 71 | 1020.6 |
| 20260830140022 | 69 | 215 | 0.0 | 0.0 | 0.00 | 0.00 | 0.00 | 73 | 1020.7 |
| 20260830134526 | 68 | 180 | 0.0 | 0.0 | 0.00 | 0.00 | 0.00 | 76 | 1020.8 |
| 20260830133014 | 67 | 180 | 0.0 | 0.0 | 0.00 | 0.00 | 0.00 | 76 | 1020.9 |
| 20260830131511 | 67 | 180 | 0.0 | 0.0 | 0.00 | 0.00 | 0.00 | 79 | 1021.0 |
| 20260830130008 | 66 | 180 | 0.0 | 0.0 | 0.00 | 0.00 | 0.00 | 84 | 1021.1 |
| 20260830124504 | 64 | 180 | 0.0 | 0.0 | 0.00 | 0.00 | 0.00 | 83 | 1021.3 |
| 20260830123003 | 64 | 180 | 0.0 | 0.0 | 0.00 | 0.00 | 0.00 | 82 | 1021.2 |
| 20260830121501 | 63 | 180 | 0.0 | 0.0 | 0.00 | 0.00 | 0.00 | 82 | 1021.3 |
| 20260830120100 | 63 | 180 | 0.0 | 0.0 | 0.00 | 0.00 | 0.00 | 81 | 1021.4 |
| 20260830114614 | 63 | 180 | 0.0 | 0.0 | 0.00 | 0.00 | 0.00 | 81 | 1021.4 |
| 20260830113058 | 62 | 180 | 0.0 | 0.0 | 0.00 | 0.00 | 0.00 | 82 | 1021.4 |